Location: Grange Rosano
(44.4500°N, 6.9667°E)
Time: 08:20:56
(UTC+00:00)

USA 307 - Pass Details

Date: 26 May 2022
Orbit: 552 x 554 km, 54.0° (Epoch: 17 June)

Event Time Altitude Azimuth Distance (km) Brightness Sun altitude
Exits shadow 01:47:50 15° 275° (W) 1,561 4.8 -17.2°
Maximum altitude 01:50:54 36° 337° (NNW) 900 4.2 -16.9°
Drops below altitude 10° 01:54:47 10° 45° (NE) 1,845 6.8 -16.5°
Sets 01:57:11 0° 54° (NE) 2,743 7.8 -16.2°
